Tracking 19574 objects as of 16-Feb-2019
HD Live streaming from Space Station
objects crossing your sky now

OPS 7518 (NTS 1)

Track OPS 7518 (NTS 1) now!
10-day predictions
OPS 7518 (NTS 1) is classified as:


NORAD ID: 7369
Int'l Code: 1974-054A
Perigee: 13,469.0 km
Apogee: 13,765.5 km
Inclination: 125.1 °
Period: 468.7 minutes
Semi major axis: 19988 km
RCS: 0.8 m2 (medium)
Launch date: July 14, 1974
Source: United States (US)
Launch site: AIR FORCE WESTERN TEST RANGE (AFWTR)
aabbcc
Your satellite tracking list
Your tracking list is empty




NASA's NSSDC Master Catalog

Two Line Element Set (TLE):
1  7369U 74054A   19045.58583980 +.00000012 +00000-0 +00000-0 0  9993
2  7369 125.1242 318.4140 0074173 276.3562 182.0278 03.07214539500296
Source of the keplerian elements: AFSPC